Home   Weather   Fort Wayne   Past weeks
Flag for USA

Past Weather in Fort Wayne, Indiana, USA — Yesterday and Last 2 Weeks

Now
65 °F

Broken clouds.


Feels Like: 65 °F
Forecast: 78 / 64 °F
Wind: 6 mph from Northeast

Location: Fort Wayne International Airport

Current Time: Jul 22, 2019 at 8:24:32 am

Latest Report: Jul 22, 2019 at 6:54 am


Visibility: 10 mi

Pressure: 29.91 "Hg

Humidity: 94%

Dew Point: 63 °F

Location of Fort WayneLocation

Past Weather in Fort Wayne — Graph

°F

Fort Wayne Temperature Yesterday

Maximum temperature yesterday: 91 °F (at 3:54 pm)
Minimum temperature yesterday: 72 °F (at 6:54 pm)
Average temperature yesterday: 79 °F

High & Low Weather Summary for the Past Weeks

 TemperatureHumidityPressure
High94 °F (Jul 10, 5:54 pm)97% (Jul 16, 6:40 pm)30.14 "Hg (Jul 16, 6:40 pm)
Low61 °F (Jul 12, 5:54 am)29% (Jul 12, 5:54 pm)29.80 "Hg (Jul 18, 6:54 pm)
Average78 °F73%29.95 "Hg
* Reported Jul 7 6:54 am — Jul 22 6:54 am, Fort Wayne. Weather by CustomWeather, © 2019

Note: Actual official high and low records may vary slightly from our data, if they occured in-between our weather recording intervals... More about our weather records

Advertising

Fort Wayne Weather History for the Previous 24 Hours

Scroll right to see more
 ConditionsComfort  
Time TempWeatherWind HumidityBarometerVisibility
6:54 am
Mon, Jul 22
65 °FBroken clouds.6 mph94%29.91 "Hg10 mi
6:27 am65 °FLight rain. Broken clouds.9 mph94%29.93 "Hg9 mi
5:54 am66 °FMostly cloudy.9 mph90%29.90 "Hg10 mi
5:36 am66 °FMostly cloudy.7 mph90%29.91 "Hg10 mi
5:17 am67 °FMostly cloudy.9 mph90%29.90 "Hg10 mi
5:13 am67 °FOvercast.9 mph93%29.90 "Hg10 mi
4:54 am68 °FMostly cloudy.9 mph90%29.89 "Hg10 mi
4:33 am68 °FLow clouds.9 mph90%29.91 "Hg10 mi
3:54 am69 °FMostly cloudy.7 mph90%29.88 "Hg10 mi
3:09 am69 °FOvercast.9 mph93%29.91 "Hg10 mi
2:54 am69 °FLight rain. Fog.12 mph93%29.90 "Hg5 mi
2:25 am70 °FLight rain. Fog.12 mph93%29.92 "Hg4 mi
2:19 am70 °FLight rain. Fog.14 mph97%29.92 "Hg4 mi
2:10 am71 °FLight rain. Fog.16 mph93%29.91 "Hg6 mi
2:00 am72 °FOvercast.7 mph93%29.91 "Hg10 mi
12:54 am72 °FLow clouds.5 mph93%29.89 "Hg10 mi
12:27 am72 °FLow clouds.No wind93%29.91 "Hg10 mi
11:54 pm
Sun, Jul 21
72 °FOvercast.5 mph93%29.90 "Hg10 mi
10:54 pm72 °FMostly cloudy.No wind93%29.91 "Hg10 mi
10:35 pm72 °FMostly cloudy.No wind93%29.93 "Hg10 mi
10:04 pm72 °FPartly cloudy.No wind93%29.93 "Hg10 mi
9:54 pm72 °FPartly cloudy.No wind91%29.91 "Hg10 mi
8:54 pm72 °FBroken clouds.7 mph93%29.89 "Hg10 mi
7:54 pm72 °FLight rain. Broken clouds.3 mph93%29.90 "Hg9 mi
7:33 pm72 °FLight rain. Broken clouds.3 mph93%29.91 "Hg9 mi
6:54 pm72 °FThunderstorms. More clouds than sun.7 mph97%29.88 "Hg7 mi
6:34 pm73 °FThunderstorms. Fog.13 mph90%29.88 "Hg3 mi
6:17 pm74 °FThunderstorms. Fog.21 mph91%29.86 "Hg1 mi
5:54 pm87 °FThunderstorms. Broken clouds.3 mph65%29.83 "Hg9 mi
4:54 pm90 °FBroken clouds.10 mph57%29.84 "Hg9 mi
4:23 pm91 °FBroken clouds.9 mph54%29.87 "Hg10 mi
3:54 pm91 °FBroken clouds.6 mph56%29.85 "Hg10 mi
2:54 pm89 °FBroken clouds.7 mph57%29.86 "Hg10 mi
1:54 pm88 °FPartly sunny.10 mph63%29.89 "Hg10 mi
12:54 pm87 °FBroken clouds.10 mph67%29.91 "Hg10 mi
12:26 pm87 °FBroken clouds.6 mph72%29.95 "Hg10 mi
12:00 pm85 °FMostly cloudy.3 mph75%29.95 "Hg10 mi
10:54 am83 °FBroken clouds.7 mph79%29.93 "Hg10 mi
10:24 am82 °FBroken clouds.No wind79%29.97 "Hg10 mi
9:54 am82 °FPartly sunny.No wind82%29.94 "Hg10 mi
8:54 am81 °FBroken clouds.3 mph82%29.94 "Hg9 mi
Weather by CustomWeather, © 2019

See weather overview